GFSSGP_850_temp_021.txt.gz
Temp
20 21 21 21 19 17 18 21 23 24 26 28 28 28 26 26 25 23 29 28 28 27 27 26 25 25 24 24 24 24 24 24 23 22 22 22 21 21 20 20 19 19 18 18 18 17 17 17 17
20 20 20 20 18 17 18 22 24 25 27 27 28 28 26 26 27 28 28 28 28 28 28 27 26 25 24 24 24 24 24 24 23 22 22 22 21 21 20 20 19 19 18 18 17 17 17 17 16
20 20 20 18 17 18 20 23 25 26 27 28 29 28 28 27 27 28 28 28 28 28 27 27 26 25 25 25 25 24 24 24 23 23 22 22 21 21 21 20 20 19 18 17 17 16 16 16 16
20 20 19 18 19 20 22 24 25 24 28 28 28 26 27 28 28 28 28 28 28 28 27 27 27 26 25 25 25 24 24 24 23 23 22 22 22 21 21 20 20 19 18 18 17 16 16 16 15
20 19 17 18 19 21 23 24 25 24 26 28 28 26 28 28 28 28 29 29 29 28 27 27 26 26 25 25 25 24 24 24 24 23 22 22 22 21 21 20 20 19 18 17 17 16 16 16 15
19 19 16 17 20 22 24 26 26 25 26 27 27 26 27 28 28 28 28 29 28 28 28 27 26 26 25 25 25 24 24 23 23 23 23 22 21 21 20 20 20 19 18 17 16 16 15 15 15
17 16 17 18 20 21 24 26 26 27 27 27 28 27 27 28 28 28 28 28 28 27 27 27 26 26 25 25 24 24 24 23 23 23 22 22 21 21 20 20 20 19 18 17 16 15 15 15 15
19 15 17 18 20 21 25 25 26 27 26 28 27 25 27 29 29 28 27 28 27 27 27 27 26 26 25 25 24 24 23 23 23 22 22 21 21 21 20 20 19 19 18 17 16 15 15 14 15
19 15 15 18 19 21 24 24 27 26 26 26 26 26 28 28 28 27 27 27 27 27 26 26 26 26 26 25 25 24 23 23 22 22 21 21 21 21 20 19 19 18 17 17 16 15 15 15 14
16 14 16 18 21 21 22 24 25 26 25 25 25 26 27 27 28 28 28 28 27 27 27 26 26 26 26 25 25 24 24 23 22 22 21 20 20 20 20 19 18 18 17 16 15 14 14 14 14
17 17 18 19 21 22 22 22 23 24 22 25 24 25 27 27 27 28 28 27 28 28 27 27 26 26 26 25 25 24 24 23 23 22 21 20 20 20 19 19 18 18 17 17 15 15 14 14 14
16 18 19 20 20 20 21 22 22 23 23 25 25 25 25 26 26 28 28 28 28 28 28 28 27 26 26 25 25 25 24 24 23 23 22 21 20 19 19 19 18 18 17 17 16 15 14 14 14
16 18 19 19 20 20 21 21 21 22 23 23 24 25 25 25 26 27 27 28 28 27 28 27 28 27 27 25 25 25 25 24 24 23 23 22 20 19 19 18 18 18 17 17 15 15 14 14 14
17 18 18 19 19 20 20 20 21 22 23 23 24 24 24 25 26 27 27 27 27 28 28 28 27 27 27 26 26 25 25 24 24 23 23 22 21 19 19 18 18 18 17 16 15 14 14 13 13
17 15 17 17 18 18 21 20 20 22 22 23 23 24 25 25 26 27 27 27 27 27 28 27 28 28 27 26 26 26 26 25 24 23 23 22 21 20 18 18 18 18 16 16 15 14 13 13 13
16 15 15 18 18 19 20 18 22 23 23 23 24 25 25 25 26 26 27 27 27 27 27 27 27 28 28 27 26 26 26 25 25 24 23 22 21 20 19 18 17 17 16 15 14 14 13 13 13
13 13 13 16 18 19 19 19 21 22 23 23 23 24 25 25 26 26 26 27 27 27 28 28 27 27 28 28 26 26 26 25 24 24 23 22 20 19 18 17 16 16 15 15 14 14 13 13 13
13 13 15 16 18 18 18 18 20 22 22 21 22 23 23 24 24 26 26 27 27 27 28 28 27 27 28 27 26 25 25 24 23 23 21 21 19 18 17 15 16 15 15 14 14 13 13 13 13
14 14 14 16 17 17 18 18 19 19 20 21 22 22 22 23 25 25 26 26 27 27 28 28 27 27 27 27 26 25 25 24 23 21 20 20 18 18 16 16 15 14 14 14 13 13 13 13 12
13 12 13 14 16 16 16 16 17 18 19 20 21 21 22 24 25 26 27 27 27 27 27 28 27 27 27 26 26 25 25 23 21 19 19 18 18 17 16 16 15 15 14 14 13 13 12 12 12
12 12 13 13 15 16 16 16 17 19 19 20 20 21 22 23 24 26 26 27 27 26 27 27 27 27 26 26 25 24 22 20 19 18 18 18 17 16 16 16 15 14 14 14 13 13 12 12 12
11 14 14 14 14 13 17 14 18 19 19 19 20 21 22 24 25 26 26 27 27 27 26 25 26 26 26 26 25 23 22 20 19 18 17 17 16 16 15 15 14 14 14 13 13 12 12 12 12
12 14 13 14 13 13 14 12 16 17 17 19 20 21 22 24 25 26 26 27 27 27 26 25 25 26 25 25 22 20 19 19 18 17 17 15 15 15 15 14 14 14 13 13 13 13 12 12 11
14 14 13 13 12 10 14 13 16 17 17 18 18 20 22 24 25 26 26 26 26 26 25 24 24 24 23 22 20 19 19 18 17 17 16 16 15 14 14 14 14 14 13 13 13 13 12 12 11
13 10 9 9 9 11 14 14 16 17 17 18 18 20 23 24 24 24 24 24 25 23 22 22 22 22 20 19 19 18 18 18 17 16 16 16 15 16 15 14 14 13 13 13 12 13 12 12 11
10 10 8 10 10 12 15 14 15 17 18 20 21 21 22 22 23 22 21 21 21 20 20 20 20 20 18 17 17 17 17 17 17 17 16 16 15 15 15 14 13 13 13 13 13 13 12 12 12
12 10 12 11 12 11 12 14 17 19 20 19 18 20 21 21 20 19 19 19 18 19 19 19 18 17 17 17 16 16 16 16 16 16 15 15 15 14 14 14 13 13 13 13 12 12 12 12 12
12 12 11 8 11 11 12 13 15 17 18 18 18 17 19 18 17 17 18 18 18 18 17 17 17 16 16 16 16 16 16 16 16 15 15 15 14 14 13 13 13 13 13 12 12 12 12 12 13
11 10 10 11 10 10 11 12 14 18 17 17 19 19 18 16 16 17 17 17 17 16 16 16 16 16 16 16 16 16 15 15 15 15 15 14 14 13 13 13 13 13 13 13 12 12 12 13 13
11 11 10 8 11 10 11 13 17 19 17 17 16 17 16 16 16 16 16 16 16 15 15 15 16 16 16 15 15 15 15 14 14 14 14 13 13 13 13 13 13 13 13 13 13 12 12 13 13

GFSSGP_850_temp_024.txt.gz
Temp
20 20 20 20 18 17 18 19 22 23 24 27 27 26 25 26 24 23 29 29 28 28 27 26 25 25 25 25 24 24 23 23 23 23 22 22 21 21 21 21 20 19 19 18 18 18 18 17 17
20 20 20 20 17 17 19 20 23 24 26 27 26 26 26 26 27 28 29 28 28 28 27 27 26 25 25 25 24 24 24 24 23 23 23 22 22 21 21 21 20 19 18 18 18 17 17 17 17
20 20 19 17 16 18 19 22 24 25 26 26 26 27 27 27 28 29 29 28 28 28 27 27 26 26 25 25 25 24 24 24 24 23 23 22 22 22 21 21 20 20 19 18 17 17 16 16 16
20 19 19 17 17 19 20 22 23 23 27 26 27 26 27 27 28 29 28 28 28 27 27 27 27 26 25 25 25 24 24 24 24 23 23 22 22 22 21 21 20 20 19 18 17 17 16 16 16
19 19 16 16 18 20 20 22 23 23 25 27 27 25 27 27 28 28 28 28 28 28 28 27 27 27 26 25 25 24 24 24 23 23 23 22 22 21 21 21 20 20 19 18 18 17 16 15 15
18 18 15 17 19 21 21 24 24 24 26 27 26 26 27 28 28 28 28 28 28 27 27 27 26 26 26 25 25 24 24 24 23 23 23 22 21 21 21 21 20 20 19 19 18 17 16 16 15
17 15 16 18 19 21 22 25 23 25 25 25 26 25 27 28 28 28 28 28 27 27 27 27 27 26 25 25 24 24 24 24 23 23 22 22 21 21 21 20 20 19 19 18 18 17 17 16 15
19 15 17 17 19 20 23 24 25 26 25 26 26 24 26 28 28 28 27 27 27 27 27 27 27 26 26 25 24 24 23 24 23 23 22 22 21 21 20 20 19 19 18 18 18 17 17 16 16
18 15 14 17 19 21 22 21 25 26 26 26 26 26 27 27 27 28 28 27 27 27 27 27 26 26 26 25 24 23 23 23 23 22 22 21 21 21 20 20 19 19 18 18 17 17 16 16 15
15 13 15 18 20 21 22 21 22 23 23 25 26 28 28 27 26 27 27 28 27 27 27 27 26 26 25 25 24 24 23 23 23 22 22 22 21 21 20 19 19 18 18 18 17 16 16 15 15
16 16 17 18 21 21 21 21 22 22 21 24 26 26 25 26 27 26 26 26 27 27 27 27 27 27 26 25 25 24 24 23 23 23 22 22 21 21 20 19 19 18 18 18 17 16 16 15 15
15 16 19 19 20 20 20 21 20 21 21 23 23 24 23 24 25 26 26 26 27 26 27 27 27 27 26 26 25 25 24 24 23 23 22 22 21 20 20 20 19 18 18 18 17 16 16 15 14
15 16 17 19 19 19 19 19 19 20 21 22 22 23 23 23 24 25 26 26 26 26 27 26 27 27 27 26 26 25 25 24 24 23 23 22 21 20 20 19 19 18 18 18 16 16 16 15 14
16 17 17 18 18 18 19 19 19 20 21 21 22 22 23 23 24 25 25 26 26 26 26 27 27 26 26 26 26 26 25 25 24 23 23 22 21 20 19 19 18 18 18 17 16 15 15 14 14
16 15 15 15 16 17 19 18 19 20 21 21 21 22 22 23 24 25 26 26 26 26 27 26 26 26 26 26 26 26 25 25 25 23 23 23 22 20 19 18 18 17 17 16 16 15 14 14 13
14 14 14 17 15 18 19 18 21 22 22 21 22 22 22 24 24 25 25 25 26 26 26 26 26 26 26 26 27 27 26 25 25 25 24 23 22 20 19 18 18 17 17 16 15 15 14 14 13
12 14 12 15 16 17 18 18 20 22 22 20 21 22 23 23 24 25 25 25 26 26 26 26 27 27 27 27 26 27 26 25 24 24 24 22 21 19 19 19 18 17 16 15 15 14 14 13 13
11 11 14 14 15 16 16 17 18 20 20 19 21 22 22 22 23 24 25 25 25 26 26 27 27 27 28 27 26 26 25 25 25 24 23 22 20 19 19 18 17 16 15 15 15 14 14 13 13
12 13 13 14 15 15 15 17 17 17 18 18 19 20 21 21 23 23 24 25 25 26 26 27 27 27 27 27 27 26 26 26 25 24 22 20 19 19 19 18 16 15 15 15 14 13 13 12 12
11 11 11 13 14 14 14 13 14 15 16 17 18 18 19 20 21 23 23 25 25 26 26 27 27 27 27 26 26 26 26 25 24 22 20 19 19 19 18 16 15 15 15 14 14 13 13 12 12
11 11 12 12 14 15 14 14 15 17 17 18 18 19 19 20 21 23 23 24 25 26 26 26 26 26 26 26 26 25 24 23 22 21 19 19 18 18 17 16 16 15 14 14 13 13 13 12 12
10 12 13 13 13 11 14 13 15 16 17 17 18 19 19 20 22 23 23 24 25 26 26 26 26 25 26 26 25 24 24 24 23 21 20 19 18 16 15 16 15 14 14 14 13 13 13 12 12
11 12 12 12 12 12 13 11 16 16 15 15 17 19 20 21 22 23 24 24 25 25 26 26 26 25 24 25 24 23 22 21 20 20 18 17 16 16 15 15 15 14 14 14 13 13 13 12 12
13 12 11 11 10 9 12 12 14 15 16 18 17 18 20 20 21 22 23 23 24 25 25 24 25 24 23 23 23 22 21 20 20 19 18 16 16 16 15 15 14 14 14 14 13 13 13 12 12
11 9 7 7 8 10 12 12 15 15 16 16 16 18 21 22 22 23 23 23 23 22 22 22 23 22 21 21 20 20 19 19 19 18 16 16 16 15 15 15 15 14 13 13 13 13 12 12 12
9 8 7 9 9 10 13 11 13 15 16 17 18 20 21 22 22 22 22 21 20 20 20 21 21 21 20 19 18 18 18 18 17 17 16 16 16 15 15 15 14 13 12 12 13 12 12 12 12
10 9 10 10 10 9 10 12 14 17 17 17 16 19 20 21 22 22 20 19 18 19 20 19 20 19 18 18 17 17 17 16 16 16 16 15 14 14 14 14 13 12 12 12 12 12 12 12 12
11 11 10 7 10 10 10 12 13 15 15 16 15 15 19 19 18 18 17 17 18 18 18 18 18 17 17 17 16 16 16 16 16 16 15 15 14 14 14 13 13 13 13 12 12 12 12 12 12
11 9 9 8 7 9 10 11 12 15 17 14 15 16 16 17 15 16 16 17 17 17 17 17 16 16 16 16 16 16 16 16 15 15 15 14 14 13 13 13 13 13 13 13 13 12 12 12 12
9 10 9 8 9 9 8 10 14 15 13 13 14 14 13 14 15 15 16 16 16 16 16 16 16 16 16 16 16 15 15 15 15 14 14 14 14 13 13 13 13 13 13 13 13 12 12 12 12

GFSSGP_850_temp_030.txt.gz
Temp
20 20 19 20 25 28 29 30 31 30 30 29 29 30 32 32 32 31 27 29 28 29 28 27 26 25 25 24 24 24 23 23 23 23 22 22 22 21 21 21 21 20 20 20 20 19 18 18 18
18 19 20 24 26 28 30 31 30 31 30 29 29 29 30 32 31 29 28 29 29 28 28 27 26 26 25 24 24 24 23 23 23 23 23 22 22 22 22 21 21 20 20 20 19 19 18 18 17
18 19 24 27 27 29 31 31 31 30 29 29 30 29 30 30 29 29 29 29 29 28 28 27 27 26 25 24 24 23 23 23 23 23 22 22 22 22 22 21 21 20 20 19 19 19 18 18 17
19 21 23 25 27 29 30 31 30 30 30 29 30 31 29 28 29 29 29 29 29 28 28 27 27 26 25 25 24 24 23 23 23 23 22 22 22 21 21 21 21 21 20 20 19 18 18 17 17
19 22 25 26 27 30 30 29 29 30 30 30 30 31 30 28 27 28 29 29 28 28 28 27 26 26 25 24 24 23 23 23 23 23 22 22 22 21 21 21 21 21 20 20 19 18 18 17 17
22 23 25 26 27 29 29 29 29 30 30 30 30 30 30 27 27 27 29 28 26 28 27 27 26 26 25 24 24 23 23 23 23 22 22 22 22 21 21 21 20 20 20 20 19 19 18 17 17
22 25 25 27 26 28 29 29 29 30 30 31 30 31 29 28 27 26 27 26 26 26 27 27 27 26 25 24 24 23 23 23 22 22 22 21 21 21 21 20 20 20 20 19 19 19 18 17 17
22 25 25 26 26 25 29 28 29 29 30 29 29 30 30 28 26 26 26 26 26 25 26 27 26 26 26 25 25 24 23 23 22 22 22 21 21 20 20 20 20 19 19 19 18 18 18 17 17
20 23 25 26 26 26 27 28 29 28 29 28 29 29 27 26 26 27 26 26 26 25 26 27 26 26 26 25 25 24 23 23 22 22 21 21 20 20 20 20 20 19 19 18 18 18 17 17 17
22 24 25 27 27 25 26 27 28 28 28 28 28 26 26 26 27 28 27 27 27 26 25 24 26 26 25 25 23 25 24 23 22 22 21 20 20 19 19 19 20 19 19 18 18 17 17 17 15
22 23 27 26 26 24 25 27 27 27 29 29 29 27 26 25 25 26 27 28 28 27 26 24 25 26 25 25 24 24 24 24 23 22 22 21 20 18 19 17 19 19 18 17 18 19 18 15 16
22 23 24 25 25 23 24 26 27 27 27 27 27 26 25 25 25 25 25 27 27 27 26 24 25 26 26 24 25 25 24 23 23 22 22 21 20 19 17 16 16 19 20 19 15 15 15 15 14
22 23 23 23 23 23 23 24 26 26 26 26 26 25 25 25 25 25 24 24 25 25 27 26 26 26 26 26 25 25 25 24 22 20 19 20 18 18 17 17 16 16 16 17 18 17 16 15 14
22 22 22 23 23 22 22 24 25 25 25 25 24 24 25 25 25 25 24 24 24 24 25 26 26 25 25 25 25 25 25 24 21 19 18 20 17 17 16 17 16 16 18 19 17 16 16 14 15
19 20 22 22 23 23 22 23 24 25 25 25 24 24 24 25 25 25 25 24 24 24 24 26 25 25 25 25 25 25 25 26 23 20 18 17 17 16 17 16 16 16 18 19 18 15 14 15 15
18 19 20 23 23 22 22 21 25 25 25 25 25 25 25 25 25 25 25 25 23 23 23 25 25 24 25 25 25 25 25 23 24 20 18 17 16 15 16 16 16 16 16 19 16 14 15 15 15
19 19 20 21 24 23 22 21 24 24 25 25 25 25 25 26 26 25 24 23 22 22 23 24 25 24 25 25 25 25 25 25 20 19 18 17 16 14 15 15 16 15 16 16 15 15 14 15 14
19 20 20 21 24 24 22 22 24 25 25 25 26 25 25 25 24 24 23 23 22 21 23 24 24 24 25 25 25 25 23 25 22 19 18 16 16 14 14 14 15 15 15 15 15 14 14 15 14
19 20 20 21 23 22 23 22 23 24 24 24 24 24 24 24 24 23 23 22 21 21 23 23 23 23 24 24 25 23 23 22 22 19 17 16 15 15 15 14 14 14 15 15 16 16 15 14 14
17 17 18 19 21 21 21 21 23 24 24 24 24 24 23 23 23 23 22 22 21 21 21 23 23 23 23 24 24 21 22 20 19 18 16 16 16 17 15 14 15 15 14 15 15 15 14 14 14
15 16 17 18 19 20 20 20 21 23 23 22 22 22 22 22 22 22 22 22 22 21 21 22 23 23 24 24 23 24 23 22 19 17 16 17 16 15 15 14 14 15 14 13 15 15 14 14 13
14 17 17 17 17 17 20 18 21 23 23 23 23 22 23 23 23 23 23 23 22 22 21 21 23 23 24 24 24 24 21 19 18 17 19 16 16 15 16 16 14 15 15 14 14 14 14 13 13
15 17 17 16 17 17 18 18 20 22 22 23 24 23 23 23 23 23 23 23 22 22 21 21 24 24 25 25 24 23 21 19 17 17 16 16 16 16 15 15 16 16 15 14 15 14 13 13 14
16 15 15 15 15 16 18 19 20 22 23 24 25 24 23 23 23 23 23 22 21 20 20 20 24 24 25 24 24 21 18 18 18 17 18 16 16 15 14 14 15 14 14 15 14 13 13 13 13
15 14 13 13 14 14 18 18 19 22 24 23 23 24 23 23 23 23 23 23 22 21 20 19 23 23 23 22 19 18 17 17 16 19 17 15 15 14 14 14 14 15 15 14 13 13 12 12 12
14 14 14 13 15 16 18 17 20 22 23 22 22 22 22 23 23 23 23 22 22 20 18 18 18 18 17 16 16 16 16 16 16 16 16 16 16 15 15 14 14 14 13 14 14 13 12 12 12
13 12 15 15 16 18 19 19 20 22 22 23 23 22 22 21 21 22 22 21 20 17 17 18 17 16 16 16 16 16 16 16 16 15 15 16 15 14 14 14 13 13 14 13 12 13 12 12 12
13 11 8 14 12 15 19 19 20 22 21 22 22 21 21 20 21 21 20 17 17 18 17 17 17 16 16 16 16 16 16 15 15 15 15 15 14 14 14 14 14 13 12 12 13 13 12 12 13
9 10 10 13 15 16 18 20 22 22 20 20 21 21 20 19 20 18 16 16 18 17 17 16 16 16 16 16 16 15 15 15 15 15 14 14 15 14 13 13 13 13 12 12 12 12 12 12 12
11 10 9 9 12 16 16 19 21 20 20 20 20 20 20 15 15 14 15 18 18 18 17 17 17 17 16 16 15 15 15 15 14 14 14 14 13 13 13 13 13 13 13 12 12 12 12 12 13

GFSSGP_850_temp_036.txt.gz
Temp
21 22 21 24 25 27 27 30 33 34 36 36 34 34 34 34 30 29 30 30 29 29 28 28 27 27 26 25 25 25 24 24 24 23 23 22 22 22 21 21 21 21 20 20 20 19 19 19 19
21 21 22 24 25 26 29 32 33 35 36 35 34 33 34 33 31 30 29 29 29 29 28 28 27 27 26 25 25 25 24 24 24 23 23 22 22 22 22 21 21 21 21 20 20 20 19 19 18
21 20 23 25 25 26 29 34 35 36 34 34 34 33 33 33 31 30 29 28 29 29 28 28 28 27 26 26 25 25 24 24 24 23 23 22 22 22 22 22 21 21 21 20 20 20 19 19 18
20 23 24 24 25 28 30 32 33 35 34 33 33 33 33 32 31 30 28 29 29 29 28 28 28 27 26 25 25 25 24 24 24 23 23 23 22 22 22 21 21 21 21 20 20 20 20 19 19
21 23 24 26 27 28 30 32 34 34 34 33 33 33 33 31 30 30 29 29 29 29 28 28 28 27 26 26 25 25 24 24 24 23 23 22 22 22 22 21 21 21 21 21 21 21 20 20 20
23 24 24 25 27 29 31 32 33 33 33 34 33 33 33 31 29 29 29 28 28 29 28 28 27 27 26 26 25 25 24 24 23 23 23 22 22 22 22 22 21 21 21 21 21 21 20 20 20
23 24 25 26 28 29 30 31 32 33 33 33 33 33 33 31 29 29 28 28 27 26 27 28 27 27 26 25 25 24 24 23 23 23 23 22 22 22 22 21 21 21 21 20 20 20 20 20 20
22 23 23 26 27 28 31 32 32 32 32 32 33 31 29 31 31 30 29 29 28 27 25 27 27 27 26 25 25 24 24 23 23 23 22 22 22 21 21 21 21 20 20 20 20 20 20 20 19
23 23 23 25 26 28 30 31 32 32 32 32 32 31 29 31 30 30 30 30 30 28 27 26 26 27 27 26 25 24 24 23 23 23 22 22 22 21 21 21 21 21 20 20 19 20 19 19 19
23 23 24 26 27 28 30 30 31 31 31 32 32 30 29 29 27 30 31 31 30 29 27 26 26 26 26 26 26 25 24 24 23 23 23 22 22 21 21 21 20 20 20 19 19 19 19 19 20
22 22 25 26 28 28 29 29 30 30 30 31 32 30 30 29 29 29 31 31 30 30 29 27 27 26 26 24 22 23 23 24 24 24 23 22 21 21 20 20 20 20 20 19 19 19 19 20 19
23 24 24 25 26 27 28 28 29 29 29 30 31 31 30 30 30 30 31 31 30 29 29 27 27 26 25 24 22 24 23 24 25 25 24 23 22 21 20 20 20 20 20 19 19 19 19 19 19
24 24 24 25 25 25 26 27 28 29 28 29 30 31 30 30 29 29 29 29 29 28 27 27 27 26 26 25 23 22 23 25 25 25 24 23 22 21 20 19 18 18 18 19 19 18 19 18 17
23 24 25 25 26 26 26 27 27 27 28 28 28 30 30 28 28 28 28 28 28 27 27 27 26 26 26 26 24 23 22 22 23 23 23 23 22 20 19 19 18 17 17 17 18 18 18 18 17
21 22 23 24 25 26 26 25 26 27 27 27 28 28 29 29 28 28 28 27 27 27 27 26 26 25 25 25 25 24 24 23 22 21 21 22 22 20 19 18 17 17 17 17 16 17 16 17 16
20 21 21 23 24 25 25 24 26 26 26 26 26 27 28 29 29 29 28 28 27 27 27 26 26 25 25 25 25 25 24 23 23 22 21 21 21 21 19 18 17 17 17 17 17 17 17 17 17
19 19 20 22 25 25 24 24 26 26 26 25 26 26 27 28 28 29 28 28 28 27 27 26 25 25 24 23 23 24 24 24 23 22 22 21 21 21 20 18 17 17 17 17 17 17 17 16 16
19 20 21 21 23 25 25 24 26 26 26 26 26 25 26 27 27 28 28 28 28 27 26 25 25 24 24 23 23 23 23 24 24 24 23 22 21 21 20 18 17 17 17 17 17 17 17 16 16
21 20 20 22 23 23 24 25 26 26 26 26 26 26 25 26 26 27 28 28 28 26 26 25 24 24 23 23 22 22 23 24 23 23 23 22 21 21 20 18 17 16 17 17 17 17 17 16 16
19 18 18 20 21 22 22 22 24 26 26 26 26 26 26 26 27 28 28 27 27 26 25 25 24 24 23 23 23 22 22 22 23 22 22 21 20 20 19 18 17 16 16 16 16 16 16 16 16
18 18 18 18 20 20 20 21 22 25 26 26 26 26 26 26 26 26 27 27 26 26 25 25 24 23 23 23 22 21 22 22 23 23 22 21 20 19 18 17 16 16 16 16 16 16 16 16 15
17 19 19 18 18 17 20 19 21 23 24 25 25 26 26 26 26 26 26 26 26 25 24 24 24 23 23 23 21 20 21 22 23 22 22 21 19 18 17 17 16 16 16 16 16 16 15 15 15
17 19 18 18 18 18 18 18 19 22 23 24 25 25 25 25 25 25 25 25 25 25 25 25 24 24 23 22 21 20 21 21 21 22 21 20 19 17 16 16 16 16 16 16 16 15 15 15 15
18 17 17 18 17 16 17 18 19 21 22 24 26 26 25 25 25 25 25 25 24 25 25 24 24 24 23 22 21 20 21 21 21 21 21 20 18 17 15 15 15 16 16 15 15 16 15 15 15
14 16 14 15 15 15 18 18 19 21 22 24 25 25 25 26 26 25 25 25 25 25 25 25 24 23 22 22 21 21 21 20 21 21 20 19 18 15 15 15 15 15 15 15 15 15 15 15 15
12 12 12 12 14 15 18 16 18 21 22 23 23 24 25 25 26 26 25 25 25 25 25 24 23 23 21 20 20 20 20 19 20 19 19 18 16 15 15 15 15 15 15 15 15 15 15 15 14
14 15 16 13 14 13 15 17 19 20 20 21 23 24 24 25 25 25 25 25 25 25 25 23 22 22 21 19 19 18 18 19 19 18 18 17 15 15 15 16 15 15 15 15 15 15 15 14 14
16 17 13 13 11 12 14 16 17 19 20 21 23 24 24 24 24 24 24 24 25 25 24 22 21 21 19 19 18 18 18 18 18 18 17 16 16 16 16 15 15 15 15 15 15 14 14 14 14
16 12 11 11 9 9 11 15 19 15 15 18 23 24 24 24 23 22 24 24 24 22 21 20 19 19 18 18 18 18 18 18 18 17 17 17 16 16 16 15 15 15 15 14 14 14 14 14 14
16 14 11 11 12 13 13 13 17 11 10 10 21 20 23 23 21 20 23 22 22 21 20 19 19 19 18 18 18 18 18 18 17 17 17 16 16 16 15 15 15 15 14 14 14 14 14 13 14

GFSSGP_850_temp_042.txt.gz
Temp
21 21 21 22 18 14 17 19 22 23 24 29 29 28 28 29 27 25 29 29 29 28 27 26 26 26 26 26 26 25 25 24 24 24 23 23 23 22 22 22 22 21 21 21 21 20 20 20 20
21 21 21 21 16 16 16 19 22 23 26 28 28 29 28 28 30 29 28 28 29 28 27 27 26 26 26 26 25 25 25 24 24 24 24 23 23 23 22 22 22 21 21 21 21 20 20 20 20
21 20 20 17 15 15 18 21 22 25 27 27 28 30 29 28 29 29 29 28 29 28 27 27 26 26 26 26 25 25 25 24 24 24 24 23 23 23 23 22 22 22 21 21 21 20 20 20 20
20 19 20 17 17 17 20 22 23 24 26 28 29 28 29 32 31 29 29 29 30 28 27 27 26 26 26 26 26 25 25 24 24 24 24 24 23 23 23 23 22 22 22 21 21 21 21 21 20
19 19 16 16 17 19 22 23 24 24 25 28 29 29 29 29 30 30 29 29 30 28 27 27 26 26 27 26 26 26 25 25 24 24 24 24 24 23 23 23 23 22 22 22 22 21 21 21 20
18 19 16 17 19 21 22 24 24 24 26 28 29 28 27 28 30 30 29 30 30 29 27 26 26 26 26 26 26 26 25 25 25 24 24 24 24 23 23 23 23 22 22 22 22 22 21 21 21
17 15 15 17 20 21 23 25 24 25 25 27 30 26 25 26 27 29 29 29 29 28 27 26 26 26 26 26 26 26 26 25 25 24 24 24 24 23 23 23 23 22 22 22 22 21 21 21 21
19 16 17 17 19 20 22 24 25 26 26 28 29 26 25 27 26 26 27 28 28 28 27 27 26 27 26 26 26 26 26 25 25 25 24 24 24 23 23 23 23 22 22 21 21 21 21 21 20
19 15 15 18 19 21 22 22 24 25 26 26 28 30 29 29 29 27 26 27 27 27 27 27 27 27 27 27 26 26 26 25 25 25 24 24 24 23 23 23 22 22 21 21 21 21 21 20 20
16 13 16 19 20 20 22 22 23 24 24 24 25 26 29 27 27 26 26 27 27 27 27 26 27 27 27 27 27 26 26 26 25 25 25 24 24 23 22 22 22 22 21 21 20 20 20 20 20
17 16 18 19 20 21 22 22 22 22 22 23 25 25 26 27 26 27 26 27 28 27 27 27 26 26 27 27 27 27 26 26 26 26 25 24 24 23 23 22 22 21 21 21 20 20 20 20 20
15 18 18 19 20 20 20 22 22 22 23 23 24 25 27 27 26 27 26 26 26 26 26 27 26 26 25 26 27 27 27 27 26 26 25 25 24 23 23 22 22 22 21 21 20 20 20 20 20
15 16 18 19 20 20 21 21 22 22 23 24 24 24 25 27 27 25 25 26 26 26 26 26 25 24 24 24 26 26 26 27 26 26 25 24 24 24 23 23 22 21 21 20 20 20 20 19 19
16 15 16 18 18 19 20 21 22 23 23 23 24 24 25 26 26 25 24 24 25 26 27 26 26 26 23 25 25 26 26 26 26 26 26 24 24 24 23 22 22 22 21 20 20 19 19 19 19
15 14 14 16 18 18 20 19 21 23 23 23 24 24 25 25 26 26 25 26 26 26 26 26 26 26 25 23 24 26 25 25 26 26 25 25 24 24 23 22 21 21 20 20 19 18 18 17 18
13 13 13 15 16 19 19 18 20 21 22 22 23 24 24 25 25 26 25 25 26 26 25 26 26 25 24 24 25 25 25 26 26 25 25 25 24 24 23 22 21 20 20 19 19 18 17 17 17
11 11 12 14 16 17 17 17 20 22 22 22 23 23 24 24 25 25 26 26 25 25 26 25 25 26 26 26 27 27 26 26 26 25 24 24 24 23 23 22 22 21 20 19 18 18 17 17 17
11 12 13 14 16 17 15 15 17 19 20 20 21 22 23 24 24 25 26 26 26 25 25 26 26 26 26 26 26 26 25 25 25 25 24 24 23 23 22 21 21 21 20 19 18 17 17 17 17
13 13 13 15 16 17 15 15 16 17 18 18 19 20 21 23 25 24 25 26 26 26 26 25 25 27 26 26 26 25 24 23 23 23 23 23 23 22 21 21 21 20 20 19 18 17 17 16 16
14 13 13 15 16 16 15 15 16 16 16 18 19 20 21 22 23 24 25 25 25 26 26 26 25 25 26 26 26 25 25 24 24 24 23 23 22 21 21 21 21 21 20 19 18 17 16 16 16
12 12 12 13 15 15 15 14 15 17 17 18 19 20 20 21 22 23 24 25 25 25 25 26 26 26 26 26 26 24 24 24 24 24 24 24 23 22 21 21 21 20 20 19 18 17 16 16 16
11 13 13 13 12 10 16 12 14 15 15 16 17 19 20 21 21 22 24 24 25 26 26 25 26 25 26 26 25 24 24 24 24 24 24 23 22 22 22 22 21 20 19 19 18 17 16 16 16
12 13 12 12 11 11 13 11 14 14 15 16 16 18 20 20 21 21 22 23 25 25 25 25 25 25 25 25 25 25 24 24 24 23 22 22 22 21 21 21 20 20 18 17 17 16 16 16 16
13 11 10 11 10 10 12 11 13 13 14 16 16 17 18 18 19 20 21 22 24 25 25 25 25 25 25 25 25 24 24 24 24 23 22 22 21 21 22 20 20 19 17 16 16 15 16 16 15
11 8 6 7 8 10 12 11 13 14 14 12 10 11 13 14 16 18 19 21 22 23 25 25 25 25 24 24 24 24 24 24 23 23 22 21 20 20 20 19 19 18 17 15 15 16 16 15 15
10 9 7 7 8 8 11 9 12 14 11 11 11 12 13 13 15 16 17 20 21 22 23 24 25 25 24 24 24 24 24 24 23 23 22 21 20 20 20 19 18 17 16 15 15 16 15 15 15
10 8 10 8 8 7 8 10 12 12 11 11 11 12 12 13 15 15 17 19 20 22 23 25 25 25 25 24 24 24 24 23 23 22 21 20 20 19 19 18 17 16 15 15 16 15 15 15 15
10 11 8 6 7 8 9 10 10 10 10 9 10 11 12 13 15 15 15 17 20 22 23 25 25 25 25 25 25 24 24 23 22 21 20 19 19 18 18 16 16 15 15 15 15 15 15 15 14
9 8 8 7 6 7 7 9 8 9 8 8 9 11 10 11 14 15 15 16 17 18 20 24 24 25 25 25 24 23 22 21 20 20 19 19 18 18 17 16 15 15 15 15 15 15 14 15 14
10 9 7 5 6 6 6 8 9 7 8 8 10 10 10 11 14 15 15 15 16 17 19 21 24 24 24 23 22 21 20 19 18 18 18 18 17 17 15 15 15 15 15 14 14 15 14 14 14

GFSSGP_850_temp_045.txt.gz
Temp
20 21 21 20 17 13 15 17 19 21 23 26 26 26 25 28 25 23 31 30 28 27 27 27 26 26 26 26 26 25 25 24 24 24 23 23 23 22 22 22 22 22 22 22 21 21 21 20 20
20 21 21 20 15 15 15 17 20 21 24 26 26 28 26 25 27 29 29 30 28 28 27 27 26 26 26 26 26 26 25 25 24 24 23 23 23 23 22 22 22 22 22 22 21 21 21 20 20
20 20 20 16 14 16 17 19 21 23 25 24 25 28 28 28 28 30 29 29 28 27 27 27 26 26 26 26 26 25 25 25 24 24 24 23 23 23 23 22 22 22 22 22 21 21 21 20 20
20 19 18 16 16 17 19 21 21 21 25 26 27 25 28 30 28 30 30 28 27 27 27 27 26 26 26 26 26 26 25 25 25 24 24 24 23 23 23 22 22 22 22 22 21 21 21 20 20
19 19 15 15 16 18 20 22 22 21 22 25 26 25 27 28 28 28 29 28 28 27 27 27 27 26 26 26 26 25 25 25 25 24 24 24 24 23 23 23 22 22 22 22 21 21 21 21 20
18 17 14 16 19 21 21 23 23 23 24 25 25 26 26 27 27 28 27 28 28 27 27 27 27 26 26 26 26 26 25 25 25 24 24 24 24 24 23 23 23 22 22 22 22 21 21 21 20
17 14 15 16 19 20 22 23 23 22 22 24 25 25 25 26 27 28 27 27 27 27 27 27 27 26 26 26 26 26 26 26 25 25 24 24 24 24 23 23 23 22 22 22 22 21 21 21 20
18 15 16 16 20 20 22 22 23 23 22 24 25 23 24 28 27 26 26 26 26 26 27 27 27 26 25 25 25 25 25 26 25 25 25 24 24 24 23 23 23 22 22 22 21 21 21 20 20
18 14 14 17 19 20 21 20 22 22 23 23 24 24 25 25 28 26 25 25 26 26 27 27 26 26 25 25 25 25 25 25 25 25 25 24 24 24 23 23 23 22 22 22 21 21 21 20 20
16 13 15 18 20 19 20 21 21 22 21 22 23 25 24 23 25 28 27 26 26 27 27 27 26 26 25 25 25 25 25 25 25 25 25 25 25 24 23 23 22 22 22 22 21 21 21 20 20
15 15 17 19 19 19 19 20 20 21 21 22 22 23 24 25 23 23 28 29 28 28 27 27 26 26 25 25 25 25 25 25 26 26 25 25 25 24 24 23 23 22 22 22 21 21 21 20 20
15 16 17 18 19 19 19 20 20 21 21 22 22 23 24 25 25 23 26 25 27 27 27 27 26 26 26 25 25 25 25 25 26 26 26 25 25 24 24 23 23 22 22 22 21 21 20 20 20
14 15 16 17 17 18 19 19 19 20 21 21 22 23 23 24 26 24 25 25 25 26 27 27 26 27 26 25 26 25 25 26 25 26 25 25 25 24 24 23 23 22 22 21 21 21 20 20 19
14 14 14 16 17 17 17 19 20 21 21 22 22 23 23 24 25 25 25 26 25 25 26 26 26 26 26 25 25 25 25 26 26 25 25 25 24 24 24 23 22 22 21 21 21 21 20 19 19
14 13 13 15 17 17 19 18 19 20 21 21 22 22 23 24 24 25 25 26 26 26 26 26 26 25 25 26 27 26 25 25 25 25 25 25 25 24 23 22 22 22 21 21 20 20 19 19 18
12 11 11 14 15 18 17 17 19 21 20 21 22 22 22 23 24 25 25 24 25 25 25 26 26 26 26 27 25 26 26 26 25 26 25 25 25 24 23 23 22 22 21 20 20 19 19 18 18
9 11 12 13 15 15 15 15 17 19 19 19 20 20 20 21 23 24 25 25 24 25 25 25 24 25 26 26 26 26 26 25 26 26 25 26 25 24 24 24 23 21 20 20 20 19 18 18 17
11 11 12 13 14 15 14 14 15 17 18 18 19 19 19 20 21 22 23 24 25 25 25 25 25 25 25 25 26 26 26 26 26 26 26 25 24 24 23 23 22 22 20 20 20 19 18 18 17
12 11 11 12 14 13 13 14 15 15 16 16 18 19 19 19 20 21 22 23 24 25 25 25 25 25 26 26 26 25 26 27 27 26 25 25 23 23 23 22 22 22 21 21 19 18 18 17 17
13 12 11 12 13 14 13 14 15 15 15 17 18 18 19 19 20 20 21 21 22 23 24 25 25 25 25 25 25 25 25 26 26 25 25 24 24 23 24 23 22 21 21 20 20 19 18 17 16
12 12 11 11 12 13 12 13 13 15 16 17 17 18 18 19 19 20 21 21 22 22 23 24 24 25 25 25 24 25 24 24 24 24 24 24 23 23 23 22 21 21 20 20 20 19 18 17 16
12 13 12 11 10 9 13 10 13 13 13 14 15 17 18 18 18 19 19 20 21 22 23 22 24 25 25 25 24 25 24 24 25 25 24 23 24 23 22 21 20 20 20 20 20 19 17 16 16
12 12 11 11 9 9 10 8 13 13 13 13 14 16 15 16 16 17 18 19 21 21 22 23 24 25 25 25 25 25 24 25 25 24 24 24 23 22 22 21 20 20 21 20 19 18 17 16 16
13 11 9 8 7 6 10 10 12 13 13 13 13 13 14 15 16 16 17 18 19 21 22 22 22 23 24 25 25 25 24 24 24 24 24 23 23 22 22 21 21 21 20 19 18 17 16 16 16
10 7 6 6 7 7 10 9 11 12 13 12 11 12 14 15 15 16 16 17 19 20 21 22 22 22 23 25 25 25 24 24 24 24 24 23 23 22 22 21 20 20 19 18 17 16 16 16 16
9 7 6 6 7 8 10 8 9 12 11 11 11 12 13 14 15 15 16 16 17 18 20 21 22 23 23 23 25 24 24 24 24 24 24 23 22 21 21 20 20 19 18 17 16 16 16 16 15
9 7 8 7 6 5 7 8 10 11 12 11 10 11 13 14 15 14 15 16 16 17 19 20 21 23 23 24 24 24 24 24 24 24 23 22 21 20 20 20 19 18 17 16 15 15 16 15 15
10 9 9 6 7 7 8 8 9 10 11 10 10 10 12 13 13 14 14 15 16 16 18 20 21 21 23 24 23 24 24 24 23 23 22 21 20 20 20 19 17 17 16 16 15 15 15 15 15
8 7 7 6 6 6 8 8 9 9 9 9 9 10 11 13 14 13 14 14 15 16 17 19 21 21 23 24 23 23 23 23 22 22 21 20 19 19 19 18 17 16 16 15 15 15 15 15 15
10 8 8 5 6 4 7 9 11 9 8 7 8 9 11 12 13 12 12 13 14 15 17 18 21 21 23 24 24 23 23 22 22 22 20 19 19 19 18 17 17 15 15 15 15 15 14 14 14

GFSSGP_850_temp_048.txt.gz
Temp
20 20 20 20 17 13 15 16 18 21 22 25 25 25 25 27 23 22 29 29 29 27 26 26 26 25 25 25 25 25 25 25 24 24 24 23 23 23 23 22 22 22 22 22 21 21 21 21 20
20 20 20 20 15 15 15 16 19 20 23 24 25 25 23 24 28 28 30 29 28 28 27 26 26 26 26 26 25 25 25 25 25 24 24 24 23 23 23 22 22 22 22 22 21 21 21 20 20
20 19 20 15 12 14 17 17 19 22 23 23 24 26 26 26 27 28 29 29 27 27 26 26 26 26 26 26 26 26 25 25 25 24 24 24 23 23 23 22 22 22 22 22 21 21 21 20 20
19 19 18 15 16 17 19 20 19 19 24 24 24 23 27 27 28 27 29 29 28 27 27 26 26 26 26 26 26 26 25 25 25 24 24 24 23 23 23 22 22 22 22 21 21 21 21 20 20
19 18 15 15 16 18 19 20 21 20 21 23 23 23 24 25 26 29 29 28 28 27 27 26 26 26 26 26 26 26 25 25 25 24 24 24 23 23 23 23 22 22 22 22 21 21 21 20 20
18 17 14 16 19 20 20 22 21 21 22 23 23 23 24 23 23 26 28 27 27 27 26 26 25 25 26 26 26 26 25 25 25 25 24 24 23 23 23 23 23 22 22 22 22 21 21 20 20
16 14 15 16 18 20 21 22 22 21 21 23 23 22 24 23 24 25 26 27 27 27 26 26 25 25 25 25 25 25 25 25 25 25 24 24 24 23 23 23 23 22 22 22 22 21 21 21 20
18 14 15 16 19 19 21 21 22 22 21 22 23 21 22 23 22 24 25 26 26 26 26 26 25 25 25 25 25 25 25 25 25 25 24 24 24 24 23 23 23 22 22 22 21 21 21 21 21
17 14 13 17 18 19 21 20 21 21 22 21 23 23 22 23 21 22 25 25 26 26 26 26 25 25 26 25 25 25 24 24 24 24 24 24 24 24 23 23 23 22 22 22 22 21 21 21 21
15 11 15 17 19 19 20 20 20 20 20 20 22 23 23 23 22 21 21 26 26 26 26 26 25 25 26 26 25 25 24 24 24 24 24 24 24 24 23 23 23 22 22 22 22 21 21 21 21
14 12 16 18 18 19 18 19 20 19 19 21 21 22 22 23 23 23 22 23 28 27 26 26 26 25 26 26 25 25 25 24 24 24 24 24 24 23 23 23 23 22 22 22 22 22 21 21 21
14 15 16 17 18 18 18 19 19 19 20 20 21 21 22 23 24 24 24 23 24 26 27 26 26 25 26 26 25 25 25 25 24 24 24 24 24 23 23 23 23 23 23 22 22 21 21 21 20
14 14 15 16 16 17 18 17 18 19 19 20 21 22 23 23 24 24 24 24 24 24 24 26 25 25 26 26 26 25 25 25 25 24 25 24 24 24 23 23 23 23 22 22 21 21 21 21 20
13 13 14 15 16 16 16 17 18 20 20 20 21 22 22 23 23 24 24 25 24 24 25 26 24 25 26 26 25 26 25 25 25 25 25 25 25 25 24 23 23 23 22 22 21 21 20 20 19
14 13 13 14 15 15 18 15 17 19 20 20 21 21 22 22 23 24 24 24 24 24 24 26 26 25 26 26 26 25 26 26 26 26 25 25 25 25 24 24 23 22 22 21 21 20 20 20 19
11 10 11 13 14 16 16 15 17 18 19 19 19 20 20 21 22 23 23 24 24 24 24 25 25 25 25 25 26 25 26 26 25 26 25 25 25 25 25 24 23 22 22 21 20 20 20 19 19
8 10 12 12 14 14 15 14 16 18 18 18 19 18 19 20 21 22 23 24 24 23 23 24 24 25 25 25 25 25 26 25 25 26 25 25 24 25 24 24 23 21 21 21 20 20 19 19 18
11 10 11 11 12 12 11 12 14 16 16 16 17 18 18 19 20 20 21 23 24 24 23 23 23 24 24 24 24 24 24 25 25 25 25 25 25 24 24 24 23 22 22 20 20 20 19 18 18
11 11 11 11 12 11 11 12 13 14 15 15 17 18 18 18 19 20 20 21 22 24 24 23 23 24 24 24 23 23 23 24 25 26 26 25 26 25 23 24 23 23 22 21 20 19 18 18 17
12 11 11 10 12 12 11 12 13 13 14 16 16 17 18 18 19 19 20 20 21 22 24 24 23 24 25 25 24 24 24 24 24 25 25 25 25 24 24 24 24 23 22 20 20 19 18 18 17
11 11 11 10 11 11 10 12 12 13 14 15 16 17 17 17 17 18 19 19 20 21 22 23 24 23 24 25 24 24 24 24 24 24 25 26 26 24 23 24 24 23 21 20 20 19 18 18 17
11 12 11 11 9 7 11 8 11 12 12 12 14 16 17 17 17 17 17 18 19 20 20 21 22 23 23 23 24 25 25 25 25 25 25 25 25 25 24 24 23 22 21 20 19 19 18 17 16
11 12 11 11 9 8 9 7 10 11 12 12 14 15 16 16 16 16 16 17 18 18 19 20 21 22 23 23 23 24 24 25 25 25 25 25 24 24 24 23 22 22 21 20 20 19 19 17 16
11 11 9 6 6 6 7 7 9 10 12 12 12 14 14 14 15 15 16 16 17 18 18 19 20 21 22 23 24 24 24 24 24 25 25 24 23 24 24 23 22 21 21 20 20 19 18 17 16
9 7 6 6 6 7 8 8 9 10 12 12 12 13 15 15 15 15 15 16 16 17 18 19 19 21 21 21 23 23 23 23 25 24 24 24 23 24 23 22 22 21 20 20 19 18 17 17 17
8 7 5 6 7 8 9 7 8 11 11 12 12 12 13 14 14 14 14 15 15 16 17 18 19 20 21 21 23 23 22 22 23 24 24 23 24 24 23 22 21 20 19 19 18 17 16 16 16
8 7 7 7 6 3 7 7 9 11 10 10 10 12 13 14 14 14 14 14 15 15 15 16 18 20 21 22 22 23 24 24 23 24 23 23 23 23 22 21 20 19 18 18 17 17 16 15 16
9 8 6 3 6 7 8 8 9 10 10 10 9 10 13 13 14 14 14 14 14 14 15 16 17 19 20 21 22 23 24 24 24 24 23 23 23 22 21 20 20 19 18 17 16 16 15 16 15
7 7 5 5 5 5 7 8 9 9 9 9 9 11 11 12 13 13 13 13 14 14 15 16 17 18 19 21 22 23 24 25 24 24 22 23 22 22 21 20 19 18 17 16 16 15 15 15 15
8 7 6 7 6 4 6 9 10 8 8 7 8 9 10 10 11 12 12 13 14 14 14 15 17 18 19 21 21 22 24 24 23 23 22 22 22 20 20 19 18 17 16 16 15 15 15 15 15